Location: Peebles
(55.6412°N, 3.1714°W)
Time: 22:35:26
(UTC+01:00)

CENTAUR R/B - Pass Details

Date: 27 January 2022
Orbit: 716 x 1471 km, 63.4° (Epoch: 08 May)

Event Time Altitude Azimuth Distance (km) Brightness Sun altitude
Rises 21:46:44 0° 305° (NW) 3,968 6.5 -42.2°
Reaches altitude 10° 21:49:16 10° 307° (NW) 3,107 5.7 -42.5°
Enters shadow 21:53:50 42° 315° (NW) 1,743 4.0 -43.0°
